START_TIME,STEP,MOV.,P11,t_acc.,P23,t_acc.,P27,t_acc.,A4,t_acc.
1979-03-04 15:13:24.610 ,0,0,0.,4.8,0.,4.8,0.,4.8,12.,4.8
1979-03-04 15:13:29.410 ,0,0,0.,4.8,0.,4.8,0.,4.8,9.,4.8
1979-03-04 15:13:34.210 ,0,0,0.,4.8,0.,4.8,0.,4.8,14.,4.8
1979-03-04 15:13:39.010 ,0,0,0.,4.8,0.,4.8,0.,4.8,17.,4.8
1979-03-04 15:13:43.810 ,0,0,0.,4.8,0.,4.8,0.,4.8,10.,4.8
1979-03-04 15:13:48.610 ,5,0,0.,4.8,0.,4.8,0.,4.8,11.,4.8
1979-03-04 15:13:53.410 ,5,0,0.,4.8,0.,4.8,0.,4.8,13.,4.8
1979-03-04 15:13:58.210 ,5,0,0.,4.8,0.,4.8,0.,4.8,14.,4.8
1979-03-04 15:14:03.010 ,5,0,0.,4.8,0.,4.8,0.,4.8,18.,4.8
1979-03-04 15:14:07.810 ,5,0,0.,4.8,0.,4.8,0.,4.8,21.,4.8
1979-03-04 15:14:12.610 ,6,0,0.,4.8,0.,4.8,0.,4.8,15.,4.8
1979-03-04 15:14:17.410 ,6,0,0.,4.8,0.,4.8,0.,4.8,15.,4.8
1979-03-04 15:14:22.210 ,6,0,0.,4.8,0.,4.8,0.,4.8,16.,4.8
1979-03-04 15:14:27.010 ,6,0,0.,4.8,0.,4.8,0.,4.8,16.,4.8
1979-03-04 15:14:31.810 ,6,0,0.,4.8,0.,4.8,0.,4.8,9.,4.8
1979-03-04 15:14:36.610 ,7,0,0.,4.8,0.,4.8,0.,4.8,13.,4.8
1979-03-04 15:14:41.410 ,7,0,0.,4.8,0.,4.8,0.,4.8,10.,4.8
1979-03-04 15:14:46.210 ,7,0,0.,4.8,0.,4.8,0.,4.8,3.,4.8
1979-03-04 15:14:51.010 ,7,0,0.,4.8,0.,4.8,0.,4.8,0.,4.8
1979-03-04 15:14:55.810 ,7,0,0.,4.8,0.,4.8,0.,4.8,0.,4.8
1979-03-04 15:15:00.610 ,7,0,0.,4.8,0.,4.8,0.,4.8,0.,4.8
1979-03-04 15:15:05.410 ,7,0,0.,4.8,0.,4.8,0.,4.8,0.,4.8
1979-03-04 15:15:10.210 ,7,0,0.,4.8,0.,4.8,0.,4.8,0.,4.8
1979-03-04 15:15:15.010 ,7,0,0.,4.8,0.,4.8,0.,4.8,0.,4.8
1979-03-04 15:15:19.810 ,7,0,0.,4.8,0.,4.8,0.,4.8,0.,4.8
1979-03-04 15:15:24.610 ,6,0,0.,4.8,0.,4.8,0.,4.8,0.,4.8
1979-03-04 15:15:29.410 ,6,0,0.,4.8,0.,4.8,0.,4.8,0.,4.8
1979-03-04 15:15:34.210 ,6,0,0.,4.8,0.,4.8,0.,4.8,10.,4.8
1979-03-04 15:15:39.010 ,6,0,0.,4.8,0.,4.8,0.,4.8,19.,4.8
1979-03-04 15:15:43.810 ,6,0,0.,4.8,0.,4.8,0.,4.8,15.,4.8
1979-03-04 15:15:48.610 ,5,0,0.,4.8,0.,4.8,0.,4.8,8.,4.8
1979-03-04 15:15:53.410 ,5,0,0.,4.8,0.,4.8,0.,4.8,18.,4.8
1979-03-04 15:15:58.210 ,5,0,0.,4.8,0.,4.8,0.,4.8,5.,4.8
1979-03-04 15:16:03.010 ,5,0,0.,4.8,0.,4.8,0.,4.8,11.,4.8
1979-03-04 15:16:07.810 ,5,0,0.,4.8,0.,4.8,0.,4.8,14.,4.8
1979-03-04 15:16:12.610 ,4,0,0.,4.8,0.,4.8,0.,4.8,8.,4.8
1979-03-04 15:16:17.410 ,4,0,0.,4.8,0.,4.8,0.,4.8,9.,4.8
1979-03-04 15:16:22.210 ,4,0,0.,4.8,0.,4.8,0.,4.8,4.,4.8
1979-03-04 15:16:27.010 ,4,0,0.,4.8,0.,4.8,0.,4.8,16.,4.8
1979-03-04 15:16:31.810 ,4,0,0.,4.8,0.,4.8,0.,4.8,11.,4.8
1979-03-04 15:16:36.610 ,3,0,0.,4.8,0.,4.8,0.,4.8,11.,4.8
1979-03-04 15:16:41.410 ,3,0,0.,4.8,0.,4.8,0.,4.8,10.,4.8
1979-03-04 15:16:46.210 ,3,0,0.,4.8,0.,4.8,0.,4.8,12.,4.8
1979-03-04 15:16:51.010 ,3,0,0.,4.8,0.,4.8,0.,4.8,9.,4.8
1979-03-04 15:16:55.810 ,3,0,0.,4.8,0.,4.8,0.,4.8,10.,4.8
1979-03-04 15:17:00.610 ,2,0,0.,4.8,0.,4.8,0.,4.8,4.,4.8
1979-03-04 15:17:05.410 ,2,0,0.,4.8,0.,4.8,0.,4.8,12.,4.8
1979-03-04 15:17:10.210 ,2,0,0.,4.8,0.,4.8,0.,4.8,10.,4.8
1979-03-04 15:17:15.010 ,2,0,0.,4.8,0.,4.8,0.,4.8,5.,4.8
1979-03-04 15:17:19.810 ,2,0,0.,4.8,0.,4.8,0.,4.8,13.,4.8
1979-03-04 15:17:24.610 ,1,0,0.,4.8,0.,4.8,0.,4.8,6.,4.8
1979-03-04 15:17:29.410 ,1,0,0.,4.8,0.,4.8,0.,4.8,8.,4.8
1979-03-04 15:17:34.210 ,1,0,0.,4.8,0.,4.8,0.,4.8,9.,4.8
1979-03-04 15:17:39.010 ,1,0,0.,4.8,0.,4.8,0.,4.8,13.,4.8
1979-03-04 15:17:43.810 ,1,0,0.,4.8,0.,4.8,0.,4.8,12.,4.8
1979-03-04 15:17:48.610 ,0,0,0.,4.8,0.,4.8,0.,4.8,11.,4.8
1979-03-04 15:17:53.410 ,0,0,0.,4.8,0.,4.8,0.,4.8,7.,4.8
1979-03-04 15:17:58.210 ,0,0,0.,4.8,0.,4.8,0.,4.8,7.,4.8
1979-03-04 15:18:03.010 ,0,0,0.,4.8,0.,4.8,0.,4.8,7.,4.8
1979-03-04 15:18:07.810 ,0,0,0.,4.8,0.,4.8,0.,4.8,6.,4.8
1979-03-04 15:18:12.610 ,0,0,0.,4.8,0.,4.8,0.,4.8,8.,4.8
1979-03-04 15:18:17.410 ,0,0,0.,4.8,0.,4.8,0.,4.8,14.,4.8
1979-03-04 15:18:22.210 ,0,0,0.,4.8,0.,4.8,0.,4.8,10.,4.8
1979-03-04 15:18:27.010 ,0,0,0.,4.8,0.,4.8,0.,4.8,9.,4.8
1979-03-04 15:18:31.810 ,0,0,0.,4.8,0.,4.8,0.,4.8,8.,4.8
1979-03-04 15:18:36.610 ,1,0,0.,4.8,0.,4.8,0.,4.8,17.,4.8
1979-03-04 15:18:41.410 ,1,0,0.,4.8,0.,4.8,0.,4.8,9.,4.8
1979-03-04 15:18:46.210 ,1,0,0.,4.8,0.,4.8,0.,4.8,10.,4.8
1979-03-04 15:18:51.010 ,1,0,0.,4.8,0.,4.8,0.,4.8,5.,4.8
1979-03-04 15:18:55.810 ,1,0,0.,4.8,0.,4.8,0.,4.8,11.,4.8
1979-03-04 15:19:00.610 ,2,0,0.,4.8,0.,4.8,0.,4.8,15.,4.8
1979-03-04 15:19:05.410 ,2,0,0.,4.8,0.,4.8,0.,4.8,13.,4.8
1979-03-04 15:19:10.210 ,2,0,0.,4.8,0.,4.8,0.,4.8,11.,4.8
1979-03-04 15:19:15.010 ,2,0,0.,4.8,0.,4.8,0.,4.8,13.,4.8
1979-03-04 15:19:19.810 ,2,0,0.,4.8,0.,4.8,0.,4.8,9.,4.8
1979-03-04 15:19:24.610 ,3,0,0.,4.8,0.,4.8,0.,4.8,8.,4.8
1979-03-04 15:19:29.410 ,3,0,0.,4.8,0.,4.8,0.,4.8,4.,4.8
1979-03-04 15:19:34.210 ,3,0,0.,4.8,0.,4.8,0.,4.8,8.,4.8
1979-03-04 15:19:39.010 ,3,0,0.,4.8,0.,4.8,0.,4.8,12.,4.8
1979-03-04 15:19:43.810 ,3,0,0.,4.8,0.,4.8,0.,4.8,9.,4.8
1979-03-04 15:19:48.610 ,4,0,0.,4.8,0.,4.8,0.,4.8,11.,4.8
1979-03-04 15:19:53.410 ,4,0,0.,4.8,0.,4.8,0.,4.8,5.,4.8
1979-03-04 15:19:58.210 ,4,0,0.,4.8,0.,4.8,0.,4.8,8.,4.8
1979-03-04 15:20:03.010 ,4,0,0.,4.8,0.,4.8,0.,4.8,17.,4.8
1979-03-04 15:20:07.810 ,4,0,0.,4.8,0.,4.8,0.,4.8,4.,4.8
1979-03-04 15:20:12.610 ,5,0,0.,4.8,0.,4.8,0.,4.8,9.,4.8
1979-03-04 15:20:17.410 ,5,0,0.,4.8,0.,4.8,0.,4.8,9.,4.8
1979-03-04 15:20:22.210 ,5,0,0.,4.8,0.,4.8,0.,4.8,9.,4.8
1979-03-04 15:20:27.010 ,5,0,0.,4.8,0.,4.8,0.,4.8,14.,4.8
1979-03-04 15:20:31.810 ,5,0,0.,4.8,0.,4.8,0.,4.8,16.,4.8
1979-03-04 15:20:36.610 ,6,0,0.,4.8,0.,4.8,0.,4.8,12.,4.8
1979-03-04 15:20:41.410 ,6,0,0.,4.8,0.,4.8,0.,4.8,9.,4.8
1979-03-04 15:20:46.210 ,6,0,0.,4.8,0.,4.8,0.,4.8,5.,4.8
1979-03-04 15:20:51.010 ,6,0,0.,4.8,0.,4.8,0.,4.8,9.,4.8
1979-03-04 15:20:55.810 ,6,0,0.,4.8,0.,4.8,0.,4.8,18.,4.8
1979-03-04 15:21:00.610 ,7,0,0.,4.8,0.,4.8,0.,4.8,14.,4.8
1979-03-04 15:21:05.410 ,7,0,0.,4.8,0.,4.8,0.,4.8,9.,4.8
1979-03-04 15:21:10.210 ,7,0,0.,4.8,0.,4.8,0.,4.8,6.,4.8
1979-03-04 15:21:15.010 ,7,0,0.,4.8,0.,4.8,0.,4.8,0.,4.8
1979-03-04 15:21:19.810 ,7,0,0.,4.8,0.,4.8,0.,4.8,0.,4.8
1979-03-04 15:21:24.610 ,7,0,0.,4.8,0.,4.8,0.,4.8,0.,4.8
1979-03-04 15:21:29.410 ,7,0,0.,4.8,0.,4.8,0.,4.8,0.,4.8
1979-03-04 15:21:34.210 ,7,0,0.,4.8,0.,4.8,0.,4.8,0.,4.8
1979-03-04 15:21:39.010 ,7,0,0.,4.8,0.,4.8,0.,4.8,0.,4.8
1979-03-04 15:21:43.810 ,7,0,0.,4.8,0.,4.8,0.,4.8,0.,4.8
1979-03-04 15:21:48.610 ,6,0,0.,4.8,0.,4.8,0.,4.8,0.,4.8
1979-03-04 15:21:53.410 ,6,0,0.,4.8,0.,4.8,0.,4.8,0.,4.8
1979-03-04 15:21:58.210 ,6,0,0.,4.8,0.,4.8,0.,4.8,10.,4.8
1979-03-04 15:22:03.010 ,6,0,0.,4.8,0.,4.8,0.,4.8,16.,4.8
1979-03-04 15:22:07.810 ,6,0,0.,4.8,0.,4.8,0.,4.8,16.,4.8
1979-03-04 15:22:12.610 ,5,0,0.,4.8,0.,4.8,0.,4.8,16.,4.8
1979-03-04 15:22:17.410 ,5,0,0.,4.8,0.,4.8,0.,4.8,18.,4.8
1979-03-04 15:22:22.210 ,5,0,0.,4.8,0.,4.8,0.,4.8,16.,4.8
1979-03-04 15:22:27.010 ,5,0,0.,4.8,0.,4.8,0.,4.8,20.,4.8
1979-03-04 15:22:31.810 ,5,0,0.,4.8,0.,4.8,0.,4.8,16.,4.8
1979-03-04 15:22:36.610 ,4,0,0.,4.8,0.,4.8,0.,4.8,16.,4.8
1979-03-04 15:22:41.410 ,4,0,0.,4.8,0.,4.8,0.,4.8,19.,4.8
1979-03-04 15:22:46.210 ,4,0,0.,4.8,0.,4.8,0.,4.8,17.,4.8
1979-03-04 15:22:51.010 ,4,0,0.,4.8,0.,4.8,0.,4.8,16.,4.8
1979-03-04 15:22:55.810 ,4,0,0.,4.8,0.,4.8,0.,4.8,7.,4.8
1979-03-04 15:23:00.610 ,0,0,0.,4.8,0.,4.8,0.,4.8,9.,4.8
1979-03-04 15:23:05.410 ,0,0,0.,4.8,0.,4.8,0.,4.8,28.,4.8
1979-03-04 15:23:10.210 ,0,0,0.,4.8,0.,4.8,0.,4.8,11.,4.8
1979-03-04 15:23:15.010 ,0,0,0.,4.8,0.,4.8,0.,4.8,20.,4.8
1979-03-04 15:23:19.810 ,0,0,0.,4.8,0.,4.8,0.,4.8,14.,4.8
1979-03-04 15:23:24.610 ,2,0,0.,4.8,0.,4.8,0.,4.8,22.,4.8
1979-03-04 15:23:29.410 ,2,0,0.,4.8,0.,4.8,0.,4.8,17.,4.8
1979-03-04 15:23:34.210 ,2,0,0.,4.8,0.,4.8,0.,4.8,24.,4.8
1979-03-04 15:23:39.010 ,2,0,0.,4.8,0.,4.8,0.,4.8,18.,4.8
1979-03-04 15:23:43.810 ,2,0,0.,4.8,0.,4.8,0.,4.8,9.,4.8
1979-03-04 15:23:48.610 ,1,0,0.,4.8,0.,4.8,0.,4.8,14.,4.8
1979-03-04 15:23:53.410 ,1,0,0.,4.8,0.,4.8,0.,4.8,8.,4.8
1979-03-04 15:23:58.210 ,1,0,0.,4.8,0.,4.8,0.,4.8,9.,4.8
1979-03-04 15:24:03.010 ,1,0,0.,4.8,0.,4.8,0.,4.8,12.,4.8
1979-03-04 15:24:07.810 ,1,0,0.,4.8,0.,4.8,0.,4.8,8.,4.8
1979-03-04 15:24:12.610 ,0,0,0.,4.8,0.,4.8,0.,4.8,8.,4.8
1979-03-04 15:24:17.410 ,0,0,0.,4.8,0.,4.8,0.,4.8,10.,4.8
1979-03-04 15:24:22.210 ,0,0,0.,4.8,0.,4.8,0.,4.8,11.,4.8
1979-03-04 15:24:27.010 ,0,0,0.,4.8,0.,4.8,0.,4.8,11.,4.8
1979-03-04 15:24:31.810 ,0,0,0.,4.8,0.,4.8,0.,4.8,20.,4.8
1979-03-04 15:24:36.610 ,0,0,0.,4.8,0.,4.8,0.,4.8,6.,4.8
1979-03-04 15:24:41.410 ,0,0,0.,4.8,0.,4.8,0.,4.8,11.,4.8
1979-03-04 15:24:46.210 ,0,0,0.,4.8,0.,4.8,0.,4.8,14.,4.8
1979-03-04 15:24:51.010 ,0,0,0.,4.8,0.,4.8,0.,4.8,9.,4.8
1979-03-04 15:24:55.810 ,0,0,0.,4.8,0.,4.8,0.,4.8,19.,4.8
1979-03-04 15:25:00.610 ,1,0,0.,4.8,0.,4.8,0.,4.8,9.,4.8
1979-03-04 15:25:05.410 ,1,0,0.,4.8,0.,4.8,0.,4.8,13.,4.8
1979-03-04 15:25:10.210 ,1,0,0.,4.8,0.,4.8,0.,4.8,17.,4.8
1979-03-04 15:25:15.010 ,1,0,0.,4.8,0.,4.8,0.,4.8,10.,4.8
1979-03-04 15:25:19.810 ,1,0,0.,4.8,0.,4.8,0.,4.8,6.,4.8
1979-03-04 15:25:24.610 ,2,0,0.,4.8,0.,4.8,0.,4.8,7.,4.8
1979-03-04 15:25:29.410 ,2,0,0.,4.8,0.,4.8,0.,4.8,11.,4.8
1979-03-04 15:25:34.210 ,2,0,0.,4.8,0.,4.8,0.,4.8,9.,4.8
1979-03-04 15:25:39.010 ,2,0,0.,4.8,0.,4.8,0.,4.8,15.,4.8
1979-03-04 15:25:43.810 ,2,0,0.,4.8,0.,4.8,0.,4.8,11.,4.8
1979-03-04 15:25:48.610 ,3,0,0.,4.8,0.,4.8,0.,4.8,16.,4.8
1979-03-04 15:25:53.410 ,3,0,0.,4.8,0.,4.8,0.,4.8,10.,4.8
1979-03-04 15:25:58.210 ,3,0,0.,4.8,0.,4.8,0.,4.8,7.,4.8
1979-03-04 15:26:03.010 ,3,0,0.,4.8,0.,4.8,0.,4.8,11.,4.8
1979-03-04 15:26:07.810 ,3,0,0.,4.8,0.,4.8,0.,4.8,15.,4.8
1979-03-04 15:26:12.610 ,4,0,0.,4.8,0.,4.8,0.,4.8,14.,4.8
1979-03-04 15:26:17.410 ,4,0,0.,4.8,0.,4.8,0.,4.8,10.,4.8
1979-03-04 15:26:22.210 ,4,0,0.,4.8,0.,4.8,0.,4.8,19.,4.8
1979-03-04 15:26:27.010 ,4,0,0.,4.8,0.,4.8,0.,4.8,17.,4.8
1979-03-04 15:26:31.810 ,4,0,0.,4.8,0.,4.8,0.,4.8,25.,4.8
1979-03-04 15:26:36.610 ,5,0,0.,4.8,0.,4.8,0.,4.8,11.,4.8
1979-03-04 15:26:41.410 ,5,0,0.,4.8,0.,4.8,0.,4.8,12.,4.8
1979-03-04 15:26:46.210 ,5,0,0.,4.8,0.,4.8,0.,4.8,24.,4.8
1979-03-04 15:26:51.010 ,5,0,0.,4.8,0.,4.8,0.,4.8,24.,4.8
1979-03-04 15:26:55.810 ,5,0,0.,4.8,0.,4.8,0.,4.8,26.,4.8
1979-03-04 15:27:00.610 ,6,0,0.,4.8,0.,4.8,0.,4.8,29.,4.8
1979-03-04 15:27:05.410 ,6,0,0.,4.8,0.,4.8,0.,4.8,32.,4.8
1979-03-04 15:27:10.210 ,6,0,0.,4.8,0.,4.8,0.,4.8,28.,4.8
1979-03-04 15:27:15.010 ,6,0,0.,4.8,0.,4.8,0.,4.8,13.,4.8
1979-03-04 15:27:19.810 ,6,0,0.,4.8,0.,4.8,0.,4.8,16.,4.8
1979-03-04 15:27:24.610 ,7,0,0.,4.8,0.,4.8,0.,4.8,14.,4.8
1979-03-04 15:27:29.410 ,7,0,0.,4.8,0.,4.8,0.,4.8,19.,4.8
1979-03-04 15:27:34.210 ,7,0,0.,4.8,0.,4.8,0.,4.8,1.,4.8
1979-03-04 15:27:39.010 ,7,0,0.,4.8,0.,4.8,0.,4.8,0.,4.8
1979-03-04 15:27:43.810 ,7,0,0.,4.8,0.,4.8,0.,4.8,0.,4.8
1979-03-04 15:27:48.610 ,7,0,0.,4.8,0.,4.8,0.,4.8,0.,4.8
1979-03-04 15:27:53.410 ,7,0,0.,4.8,0.,4.8,0.,4.8,0.,4.8
1979-03-04 15:27:58.210 ,7,0,0.,4.8,0.,4.8,0.,4.8,0.,4.8
1979-03-04 15:28:03.010 ,7,0,0.,4.8,0.,4.8,0.,4.8,0.,4.8
1979-03-04 15:28:07.810 ,7,0,0.,4.8,0.,4.8,0.,4.8,0.,4.8
1979-03-04 15:28:12.610 ,6,0,0.,4.8,0.,4.8,0.,4.8,0.,4.8
1979-03-04 15:28:17.410 ,6,0,0.,4.8,0.,4.8,0.,4.8,0.,4.8
1979-03-04 15:28:22.210 ,6,0,0.,4.8,0.,4.8,0.,4.8,13.,4.8
1979-03-04 15:28:27.010 ,6,0,0.,4.8,0.,4.8,0.,4.8,18.,4.8
1979-03-04 15:28:31.810 ,6,0,0.,4.8,0.,4.8,0.,4.8,18.,4.8
1979-03-04 15:28:36.610 ,5,0,0.,4.8,0.,4.8,0.,4.8,15.,4.8
1979-03-04 15:28:41.410 ,5,0,0.,4.8,0.,4.8,0.,4.8,12.,4.8
1979-03-04 15:28:46.210 ,5,0,0.,4.8,0.,4.8,0.,4.8,15.,4.8
1979-03-04 15:28:51.010 ,5,0,0.,4.8,0.,4.8,0.,4.8,26.,4.8
1979-03-04 15:28:55.810 ,5,0,0.,4.8,0.,4.8,0.,4.8,29.,4.8
1979-03-04 15:29:00.610 ,4,0,0.,4.8,0.,4.8,0.,4.8,26.,4.8
1979-03-04 15:29:05.410 ,4,0,0.,4.8,0.,4.8,0.,4.8,13.,4.8
1979-03-04 15:29:10.210 ,4,0,0.,4.8,0.,4.8,0.,4.8,25.,4.8
1979-03-04 15:29:15.010 ,4,0,0.,4.8,0.,4.8,0.,4.8,18.,4.8
1979-03-04 15:29:19.810 ,4,0,0.,4.8,0.,4.8,0.,4.8,21.,4.8
1979-03-04 15:29:24.610 ,3,0,0.,4.8,0.,4.8,0.,4.8,16.,4.8
1979-03-04 15:29:29.410 ,3,0,0.,4.8,0.,4.8,0.,4.8,19.,4.8
1979-03-04 15:29:34.210 ,3,0,0.,4.8,0.,4.8,0.,4.8,13.,4.8
1979-03-04 15:29:39.010 ,3,0,0.,4.8,0.,4.8,0.,4.8,17.,4.8
1979-03-04 15:29:43.810 ,3,0,0.,4.8,0.,4.8,0.,4.8,8.,4.8
1979-03-04 15:29:48.610 ,2,0,0.,4.8,0.,4.8,0.,4.8,9.,4.8
1979-03-04 15:29:53.410 ,2,0,0.,4.8,0.,4.8,0.,4.8,10.,4.8
1979-03-04 15:29:58.210 ,2,0,0.,4.8,0.,4.8,0.,4.8,12.,4.8
1979-03-04 15:30:03.010 ,2,0,0.,4.8,0.,4.8,0.,4.8,6.,4.8
1979-03-04 15:30:07.810 ,2,0,0.,4.8,0.,4.8,0.,4.8,12.,4.8
1979-03-04 15:30:12.610 ,1,0,0.,4.8,0.,4.8,0.,4.8,13.,4.8
1979-03-04 15:30:17.410 ,1,0,0.,4.8,0.,4.8,0.,4.8,9.,4.8
1979-03-04 15:30:22.210 ,1,0,0.,4.8,0.,4.8,0.,4.8,11.,4.8
1979-03-04 15:30:27.010 ,1,0,0.,4.8,0.,4.8,0.,4.8,9.,4.8
1979-03-04 15:30:31.810 ,1,0,0.,4.8,0.,4.8,0.,4.8,6.,4.8
1979-03-04 15:30:36.610 ,0,0,0.,4.8,0.,4.8,0.,4.8,11.,4.8
1979-03-04 15:30:41.410 ,0,0,0.,4.8,0.,4.8,0.,4.8,13.,4.8
1979-03-04 15:30:46.210 ,0,0,0.,4.8,0.,4.8,0.,4.8,10.,4.8
1979-03-04 15:30:51.010 ,0,0,0.,4.8,0.,4.8,0.,4.8,9.,4.8
1979-03-04 15:30:55.810 ,0,0,0.,4.8,0.,4.8,0.,4.8,5.,4.8
1979-03-04 15:31:00.610 ,0,0,0.,4.8,0.,4.8,0.,4.8,7.,4.8
1979-03-04 15:31:05.410 ,0,0,0.,4.8,0.,4.8,0.,4.8,12.,4.8
1979-03-04 15:31:10.210 ,0,0,0.,4.8,0.,4.8,0.,4.8,7.,4.8
1979-03-04 15:31:15.010 ,0,0,0.,4.8,0.,4.8,0.,4.8,17.,4.8
1979-03-04 15:31:19.810 ,0,0,0.,4.8,0.,4.8,0.,4.8,8.,4.8
1979-03-04 15:31:24.610 ,1,0,0.,4.8,0.,4.8,0.,4.8,10.,4.8
1979-03-04 15:31:29.410 ,1,0,0.,4.8,0.,4.8,0.,4.8,12.,4.8
1979-03-04 15:31:34.210 ,1,0,0.,4.8,0.,4.8,0.,4.8,5.,4.8
1979-03-04 15:31:39.010 ,1,0,0.,4.8,0.,4.8,0.,4.8,10.,4.8
1979-03-04 15:31:43.810 ,1,0,0.,4.8,0.,4.8,0.,4.8,10.,4.8
1979-03-04 15:31:48.610 ,2,0,0.,4.8,0.,4.8,0.,4.8,10.,4.8
1979-03-04 15:31:53.410 ,2,0,0.,4.8,0.,4.8,0.,4.8,7.,4.8
1979-03-04 15:31:58.210 ,2,0,0.,4.8,0.,4.8,0.,4.8,4.,4.8
1979-03-04 15:32:03.010 ,2,0,0.,4.8,0.,4.8,0.,4.8,6.,4.8
1979-03-04 15:32:07.810 ,2,0,0.,4.8,0.,4.8,0.,4.8,5.,4.8
1979-03-04 15:32:12.610 ,3,0,0.,4.8,0.,4.8,0.,4.8,8.,4.8
1979-03-04 15:32:17.410 ,3,0,0.,4.8,0.,4.8,0.,4.8,12.,4.8
1979-03-04 15:32:22.210 ,3,0,0.,4.8,0.,4.8,0.,4.8,11.,4.8
1979-03-04 15:32:27.010 ,3,0,0.,4.8,0.,4.8,0.,4.8,7.,4.8
1979-03-04 15:32:31.810 ,3,0,0.,4.8,0.,4.8,0.,4.8,9.,4.8
1979-03-04 15:32:36.610 ,4,0,0.,4.8,0.,4.8,0.,4.8,5.,4.8
1979-03-04 15:32:41.410 ,4,0,0.,4.8,0.,4.8,0.,4.8,9.,4.8
1979-03-04 15:32:46.210 ,4,0,0.,4.8,0.,4.8,0.,4.8,8.,4.8
1979-03-04 15:32:51.010 ,4,0,0.,4.8,0.,4.8,0.,4.8,14.,4.8
1979-03-04 15:32:55.810 ,4,0,0.,4.8,0.,4.8,0.,4.8,8.,4.8
1979-03-04 15:33:00.610 ,5,0,0.,4.8,0.,4.8,0.,4.8,12.,4.8
1979-03-04 15:33:05.410 ,5,0,0.,4.8,0.,4.8,0.,4.8,14.,4.8
1979-03-04 15:33:10.210 ,5,0,0.,4.8,0.,4.8,0.,4.8,13.,4.8
1979-03-04 15:33:15.010 ,5,0,0.,4.8,0.,4.8,0.,4.8,16.,4.8
1979-03-04 15:33:19.810 ,5,0,0.,4.8,0.,4.8,0.,4.8,15.,4.8
1979-03-04 15:33:24.610 ,6,0,0.,4.8,0.,4.8,0.,4.8,15.,4.8
1979-03-04 15:33:29.410 ,6,0,0.,4.8,0.,4.8,0.,4.8,17.,4.8
1979-03-04 15:33:34.210 ,6,0,0.,4.8,0.,4.8,0.,4.8,14.,4.8
1979-03-04 15:33:39.010 ,6,0,0.,4.8,0.,4.8,0.,4.8,15.,4.8
1979-03-04 15:33:43.810 ,6,0,0.,4.8,0.,4.8,0.,4.8,16.,4.8
1979-03-04 15:33:48.610 ,7,0,0.,4.8,0.,4.8,0.,4.8,5.,4.8
1979-03-04 15:33:53.410 ,7,0,0.,4.8,0.,4.8,0.,4.8,10.,4.8
1979-03-04 15:33:58.210 ,7,0,0.,4.8,0.,4.8,0.,4.8,5.,4.8
1979-03-04 15:34:03.010 ,7,0,0.,4.8,0.,4.8,0.,4.8,0.,4.8
1979-03-04 15:34:07.810 ,7,0,0.,4.8,0.,4.8,0.,4.8,0.,4.8
1979-03-04 15:34:12.610 ,7,0,0.,4.8,0.,4.8,0.,4.8,0.,4.8
1979-03-04 15:34:17.410 ,7,0,0.,4.8,0.,4.8,0.,4.8,0.,4.8
1979-03-04 15:34:22.210 ,7,0,0.,4.8,0.,4.8,0.,4.8,0.,4.8
1979-03-04 15:34:27.010 ,7,0,0.,4.8,0.,4.8,0.,4.8,0.,4.8
1979-03-04 15:34:31.810 ,7,0,0.,4.8,0.,4.8,0.,4.8,0.,4.8
1979-03-04 15:34:36.610 ,6,0,0.,4.8,0.,4.8,0.,4.8,0.,4.8
1979-03-04 15:34:41.410 ,6,0,0.,4.8,0.,4.8,0.,4.8,0.,4.8
1979-03-04 15:34:46.210 ,6,0,0.,4.8,0.,4.8,0.,4.8,17.,4.8
1979-03-04 15:34:51.010 ,6,0,0.,4.8,0.,4.8,0.,4.8,19.,4.8
1979-03-04 15:34:55.810 ,6,0,0.,4.8,0.,4.8,0.,4.8,10.,4.8
1979-03-04 15:35:00.610 ,5,0,0.,4.8,0.,4.8,0.,4.8,17.,4.8
1979-03-04 15:35:05.410 ,5,0,0.,4.8,0.,4.8,0.,4.8,19.,4.8
1979-03-04 15:35:10.210 ,5,0,0.,4.8,0.,4.8,0.,4.8,13.,4.8
1979-03-04 15:35:15.010 ,5,0,0.,4.8,0.,4.8,0.,4.8,13.,4.8
1979-03-04 15:35:19.810 ,5,0,0.,4.8,0.,4.8,0.,4.8,20.,4.8
1979-03-04 15:35:24.610 ,4,0,0.,4.8,0.,4.8,0.,4.8,13.,4.8
1979-03-04 15:35:29.410 ,4,0,0.,4.8,0.,4.8,0.,4.8,15.,4.8
1979-03-04 15:35:34.210 ,4,0,0.,4.8,0.,4.8,0.,4.8,14.,4.8
1979-03-04 15:35:39.010 ,4,0,0.,4.8,0.,4.8,0.,4.8,10.,4.8
1979-03-04 15:35:43.810 ,4,0,0.,4.8,0.,4.8,0.,4.8,11.,4.8
1979-03-04 15:35:48.610 ,3,0,0.,4.8,0.,4.8,0.,4.8,9.,4.8
1979-03-04 15:35:53.410 ,3,0,0.,4.8,0.,4.8,0.,4.8,8.,4.8
1979-03-04 15:35:58.210 ,3,0,0.,4.8,0.,4.8,0.,4.8,9.,4.8
1979-03-04 15:36:03.010 ,3,0,0.,4.8,0.,4.8,0.,4.8,6.,4.8
1979-03-04 15:36:07.810 ,3,0,0.,4.8,0.,4.8,0.,4.8,7.,4.8
1979-03-04 15:36:12.610 ,2,0,0.,4.8,0.,4.8,0.,4.8,12.,4.8
1979-03-04 15:36:17.410 ,2,0,0.,4.8,0.,4.8,0.,4.8,7.,4.8
1979-03-04 15:36:22.210 ,2,0,0.,4.8,0.,4.8,0.,4.8,12.,4.8
1979-03-04 15:36:27.010 ,2,0,0.,4.8,0.,4.8,0.,4.8,17.,4.8
1979-03-04 15:36:31.810 ,2,0,0.,4.8,0.,4.8,0.,4.8,9.,4.8
1979-03-04 15:36:36.610 ,1,0,0.,4.8,0.,4.8,0.,4.8,14.,4.8
1979-03-04 15:36:41.410 ,1,0,0.,4.8,0.,4.8,0.,4.8,4.,4.8
1979-03-04 15:36:46.210 ,1,0,0.,4.8,0.,4.8,0.,4.8,9.,4.8
1979-03-04 15:36:51.010 ,1,0,0.,4.8,0.,4.8,0.,4.8,14.,4.8
1979-03-04 15:36:55.810 ,1,0,0.,4.8,0.,4.8,0.,4.8,9.,4.8
1979-03-04 15:37:00.610 ,0,0,0.,4.8,0.,4.8,0.,4.8,10.,4.8
1979-03-04 15:37:05.410 ,0,0,0.,4.8,0.,4.8,0.,4.8,10.,4.8
1979-03-04 15:37:10.210 ,0,0,0.,4.8,0.,4.8,0.,4.8,15.,4.8
1979-03-04 15:37:15.010 ,0,0,0.,4.8,0.,4.8,0.,4.8,8.,4.8
1979-03-04 15:37:19.810 ,0,0,0.,4.8,0.,4.8,0.,4.8,16.,4.8
1979-03-04 15:37:24.610 ,0,0,0.,4.8,0.,4.8,0.,4.8,16.,4.8
1979-03-04 15:37:29.410 ,0,0,0.,4.8,0.,4.8,0.,4.8,16.,4.8
1979-03-04 15:37:34.210 ,0,0,0.,4.8,0.,4.8,0.,4.8,13.,4.8
1979-03-04 15:37:39.010 ,0,0,0.,4.8,0.,4.8,0.,4.8,11.,4.8
1979-03-04 15:37:43.810 ,0,0,0.,4.8,0.,4.8,0.,4.8,14.,4.8
1979-03-04 15:37:48.610 ,1,0,0.,4.8,0.,4.8,0.,4.8,11.,4.8
1979-03-04 15:37:53.410 ,1,0,0.,4.8,0.,4.8,0.,4.8,15.,4.8
1979-03-04 15:37:58.210 ,1,0,0.,4.8,0.,4.8,0.,4.8,12.,4.8
1979-03-04 15:38:03.010 ,1,0,0.,4.8,0.,4.8,0.,4.8,15.,4.8
1979-03-04 15:38:07.810 ,1,0,0.,4.8,0.,4.8,0.,4.8,10.,4.8
1979-03-04 15:38:12.610 ,2,0,0.,4.8,0.,4.8,0.,4.8,5.,4.8
1979-03-04 15:38:17.410 ,2,0,0.,4.8,0.,4.8,0.,4.8,4.,4.8
1979-03-04 15:38:22.210 ,2,0,0.,4.8,0.,4.8,0.,4.8,8.,4.8
1979-03-04 15:38:27.010 ,2,0,0.,4.8,0.,4.8,0.,4.8,11.,4.8
1979-03-04 15:38:31.810 ,2,0,0.,4.8,0.,4.8,0.,4.8,16.,4.8
1979-03-04 15:38:36.610 ,3,0,0.,4.8,0.,4.8,0.,4.8,13.,4.8
1979-03-04 15:38:41.410 ,3,0,0.,4.8,0.,4.8,0.,4.8,11.,4.8
1979-03-04 15:38:46.210 ,3,0,0.,4.8,0.,4.8,0.,4.8,10.,4.8
1979-03-04 15:38:51.010 ,3,0,0.,4.8,0.,4.8,0.,4.8,14.,4.8
1979-03-04 15:38:55.810 ,3,0,0.,4.8,0.,4.8,0.,4.8,20.,4.8
1979-03-04 15:39:00.610 ,4,0,0.,4.8,0.,4.8,0.,4.8,19.,4.8
1979-03-04 15:39:05.410 ,4,0,0.,4.8,0.,4.8,0.,4.8,13.,4.8
1979-03-04 15:39:10.210 ,4,0,0.,4.8,0.,4.8,0.,4.8,13.,4.8
1979-03-04 15:39:15.010 ,4,0,0.,4.8,0.,4.8,0.,4.8,15.,4.8
1979-03-04 15:39:19.810 ,4,0,0.,4.8,0.,4.8,0.,4.8,13.,4.8
1979-03-04 15:39:24.610 ,5,0,0.,4.8,0.,4.8,0.,4.8,16.,4.8
1979-03-04 15:39:29.410 ,5,0,0.,4.8,0.,4.8,0.,4.8,11.,4.8
1979-03-04 15:39:34.210 ,5,0,0.,4.8,0.,4.8,0.,4.8,13.,4.8
1979-03-04 15:39:39.010 ,5,0,0.,4.8,0.,4.8,0.,4.8,17.,4.8
1979-03-04 15:39:43.810 ,5,0,0.,4.8,0.,4.8,0.,4.8,9.,4.8
1979-03-04 15:39:48.610 ,6,0,0.,4.8,0.,4.8,0.,4.8,13.,4.8
1979-03-04 15:39:53.410 ,6,0,0.,4.8,0.,4.8,0.,4.8,16.,4.8
1979-03-04 15:39:58.210 ,6,0,0.,4.8,0.,4.8,0.,4.8,12.,4.8
1979-03-04 15:40:03.010 ,6,0,0.,4.8,0.,4.8,0.,4.8,15.,4.8
1979-03-04 15:40:07.810 ,6,0,0.,4.8,0.,4.8,0.,4.8,21.,4.8
1979-03-04 15:40:12.610 ,7,0,0.,4.8,0.,4.8,0.,4.8,22.,4.8
1979-03-04 15:40:17.410 ,7,0,0.,4.8,0.,4.8,0.,4.8,24.,4.8
1979-03-04 15:40:22.210 ,7,0,0.,4.8,0.,4.8,0.,4.8,2.,4.8
1979-03-04 15:40:27.010 ,7,0,0.,4.8,0.,4.8,0.,4.8,0.,4.8
1979-03-04 15:40:31.810 ,7,0,0.,4.8,0.,4.8,0.,4.8,0.,4.8
1979-03-04 15:40:36.610 ,7,0,0.,4.8,0.,4.8,0.,4.8,0.,4.8
1979-03-04 15:40:41.410 ,7,0,0.,4.8,0.,4.8,0.,4.8,0.,4.8
1979-03-04 15:40:46.210 ,7,0,0.,4.8,0.,4.8,0.,4.8,0.,4.8
1979-03-04 15:40:51.010 ,7,0,0.,4.8,0.,4.8,0.,4.8,0.,4.8
1979-03-04 15:40:55.810 ,7,0,0.,4.8,0.,4.8,0.,4.8,0.,4.8
1979-03-04 15:41:00.610 ,6,0,0.,4.8,0.,4.8,0.,4.8,0.,4.8
1979-03-04 15:41:05.410 ,6,0,0.,4.8,0.,4.8,0.,4.8,0.,4.8
1979-03-04 15:41:10.210 ,6,0,0.,4.8,0.,4.8,0.,4.8,14.,4.8
1979-03-04 15:41:15.010 ,6,0,0.,4.8,0.,4.8,0.,4.8,15.,4.8
1979-03-04 15:41:19.810 ,6,0,0.,4.8,0.,4.8,0.,4.8,14.,4.8
1979-03-04 15:41:24.610 ,5,0,0.,4.8,0.,4.8,0.,4.8,24.,4.8
1979-03-04 15:41:29.410 ,5,0,0.,4.8,0.,4.8,0.,4.8,12.,4.8
1979-03-04 15:41:34.210 ,5,0,0.,4.8,0.,4.8,0.,4.8,16.,4.8
1979-03-04 15:41:39.010 ,5,0,0.,4.8,0.,4.8,0.,4.8,19.,4.8
1979-03-04 15:41:43.810 ,5,0,0.,4.8,0.,4.8,0.,4.8,16.,4.8
1979-03-04 15:41:48.610 ,4,0,0.,4.8,0.,4.8,0.,4.8,26.,4.8
1979-03-04 15:41:53.410 ,4,0,0.,4.8,0.,4.8,0.,4.8,24.,4.8
1979-03-04 15:41:58.210 ,4,0,0.,4.8,0.,4.8,0.,4.8,17.,4.8
1979-03-04 15:42:03.010 ,4,0,0.,4.8,0.,4.8,0.,4.8,21.,4.8
1979-03-04 15:42:07.810 ,4,0,0.,4.8,0.,4.8,0.,4.8,17.,4.8
1979-03-04 15:42:12.610 ,3,0,0.,4.8,0.,4.8,0.,4.8,14.,4.8
1979-03-04 15:42:17.410 ,3,0,0.,4.8,0.,4.8,0.,4.8,14.,4.8
1979-03-04 15:42:22.210 ,3,0,0.,4.8,0.,4.8,0.,4.8,8.,4.8
1979-03-04 15:42:27.010 ,3,0,0.,4.8,0.,4.8,0.,4.8,14.,4.8
1979-03-04 15:42:31.810 ,3,0,0.,4.8,0.,4.8,0.,4.8,16.,4.8
1979-03-04 15:42:36.610 ,2,0,0.,4.8,0.,4.8,0.,4.8,14.,4.8
1979-03-04 15:42:41.410 ,2,0,0.,4.8,0.,4.8,0.,4.8,9.,4.8
1979-03-04 15:42:46.210 ,2,0,0.,4.8,0.,4.8,0.,4.8,11.,4.8
1979-03-04 15:42:51.010 ,2,0,0.,4.8,0.,4.8,0.,4.8,6.,4.8
1979-03-04 15:42:55.810 ,2,0,0.,4.8,0.,4.8,0.,4.8,14.,4.8
1979-03-04 15:43:00.610 ,1,0,0.,4.8,0.,4.8,0.,4.8,9.,4.8
1979-03-04 15:43:05.410 ,1,0,0.,4.8,0.,4.8,0.,4.8,18.,4.8
1979-03-04 15:43:10.210 ,1,0,0.,4.8,0.,4.8,0.,4.8,10.,4.8
1979-03-04 15:43:15.010 ,1,0,0.,4.8,0.,4.8,0.,4.8,21.,4.8
1979-03-04 15:43:19.810 ,1,0,0.,4.8,0.,4.8,0.,4.8,11.,4.8
1979-03-04 15:43:24.610 ,0,0,0.,4.8,0.,4.8,0.,4.8,7.,4.8
1979-03-04 15:43:29.410 ,0,0,0.,4.8,0.,4.8,0.,4.8,13.,4.8
1979-03-04 15:43:34.210 ,0,0,0.,4.8,0.,4.8,0.,4.8,7.,4.8
1979-03-04 15:43:39.010 ,0,0,0.,4.8,0.,4.8,0.,4.8,9.,4.8
1979-03-04 15:43:43.810 ,0,0,0.,4.8,0.,4.8,0.,4.8,13.,4.8
1979-03-04 15:43:48.610 ,0,0,0.,4.8,0.,4.8,0.,4.8,6.,4.8
1979-03-04 15:43:53.410 ,0,0,0.,4.8,0.,4.8,0.,4.8,7.,4.8
1979-03-04 15:43:58.210 ,0,0,0.,4.8,0.,4.8,0.,4.8,10.,4.8
1979-03-04 15:44:03.010 ,0,0,0.,4.8,0.,4.8,0.,4.8,17.,4.8
1979-03-04 15:44:07.810 ,0,0,0.,4.8,0.,4.8,0.,4.8,17.,4.8
1979-03-04 15:44:12.610 ,1,0,0.,4.8,0.,4.8,0.,4.8,7.,4.8
1979-03-04 15:44:17.410 ,1,0,0.,4.8,0.,4.8,0.,4.8,14.,4.8
1979-03-04 15:44:22.210 ,1,0,0.,4.8,0.,4.8,0.,4.8,8.,4.8
1979-03-04 15:44:27.010 ,1,0,0.,4.8,0.,4.8,0.,4.8,18.,4.8
1979-03-04 15:44:31.810 ,1,0,0.,4.8,0.,4.8,0.,4.8,10.,4.8
1979-03-04 15:44:36.610 ,2,0,0.,4.8,0.,4.8,0.,4.8,9.,4.8
1979-03-04 15:44:41.410 ,2,0,0.,4.8,0.,4.8,0.,4.8,10.,4.8
1979-03-04 15:44:46.210 ,2,0,0.,4.8,0.,4.8,0.,4.8,8.,4.8
1979-03-04 15:44:51.010 ,2,0,0.,4.8,0.,4.8,0.,4.8,4.,4.8
1979-03-04 15:44:55.810 ,2,0,0.,4.8,0.,4.8,0.,4.8,7.,4.8
1979-03-04 15:45:00.610 ,3,0,0.,4.8,0.,4.8,0.,4.8,11.,4.8
1979-03-04 15:45:05.410 ,3,0,0.,4.8,0.,4.8,0.,4.8,11.,4.8
1979-03-04 15:45:10.210 ,3,0,0.,4.8,0.,4.8,0.,4.8,9.,4.8
1979-03-04 15:45:15.010 ,3,0,0.,4.8,0.,4.8,0.,4.8,12.,4.8
1979-03-04 15:45:19.810 ,3,0,0.,4.8,0.,4.8,0.,4.8,11.,4.8
1979-03-04 15:45:24.610 ,4,0,0.,4.8,0.,4.8,0.,4.8,11.,4.8
1979-03-04 15:45:29.410 ,4,0,0.,4.8,0.,4.8,0.,4.8,16.,4.8
1979-03-04 15:45:34.210 ,4,0,0.,4.8,0.,4.8,0.,4.8,14.,4.8
1979-03-04 15:45:39.010 ,4,0,0.,4.8,0.,4.8,0.,4.8,19.,4.8
1979-03-04 15:45:43.810 ,4,0,0.,4.8,0.,4.8,0.,4.8,15.,4.8
1979-03-04 15:45:48.610 ,5,0,0.,4.8,0.,4.8,0.,4.8,9.,4.8
1979-03-04 15:45:53.410 ,5,0,0.,4.8,0.,4.8,0.,4.8,21.,4.8
1979-03-04 15:45:58.210 ,5,0,0.,4.8,0.,4.8,0.,4.8,18.,4.8